TimeHST,TemperatureF,Dew PointF,Humidity,Sea Level PressureIn,VisibilityMPH,Wind Direction,Wind SpeedMPH,Gust SpeedMPH,PrecipitationIn,Events,Conditions,WindDirDegrees,DateUTC
12:54 AM,-9999,-9999,N/A,30.08,10.0,Calm,Calm,-,N/A,,Clear,0,2014-05-05 10:54:00
1:54 AM,-9999,-9999,N/A,30.06,10.0,NNE,3.5,-,N/A,,Clear,20,2014-05-05 11:54:00
2:54 AM,-9999,-9999,N/A,30.05,10.0,North,5.8,-,N/A,,Clear,10,2014-05-05 12:54:00
3:54 AM,-9999,-9999,N/A,30.05,10.0,North,4.6,-,N/A,,Clear,10,2014-05-05 13:54:00
4:54 AM,-9999,-9999,N/A,30.06,10.0,NE,3.5,-,N/A,,Clear,50,2014-05-05 14:54:00
5:54 AM,-9999,-9999,N/A,30.06,10.0,ENE,5.8,-,N/A,,Clear,60,2014-05-05 15:54:00
6:54 AM,69.8,68.0,94,30.09,10.0,NE,3.5,-,N/A,,Clear,40,2014-05-05 16:54:00
7:54 AM,75.0,71.1,87,30.11,10.0,Calm,Calm,-,N/A,,Scattered Clouds,0,2014-05-05 17:54:00
8:54 AM,79.0,69.1,72,30.10,10.0,Calm,Calm,-,N/A,,Clear,0,2014-05-05 18:54:00
9:54 AM,81.0,71.1,72,30.10,10.0,NNE,8.1,-,N/A,,Partly Cloudy,20,2014-05-05 19:54:00
10:54 AM,81.0,68.0,65,30.09,10.0,South,8.1,-,N/A,,Partly Cloudy,170,2014-05-05 20:54:00
11:54 AM,80.1,69.1,69,30.08,10.0,Variable,3.5,-,N/A,,Mostly Cloudy,0,2014-05-05 21:54:00
12:54 PM,82.0,70.0,67,30.07,10.0,South,9.2,-,N/A,,Scattered Clouds,170,2014-05-05 22:54:00
1:54 PM,81.0,71.1,72,30.05,10.0,SSE,10.4,19.6,N/A,,Clear,160,2014-05-05 23:54:00
2:54 PM,80.1,70.0,71,30.04,10.0,South,10.4,-,N/A,,Scattered Clouds,170,2014-05-06 00:54:00
3:54 PM,80.1,70.0,71,30.04,10.0,South,9.2,-,N/A,,Scattered Clouds,180,2014-05-06 01:54:00
4:54 PM,80.1,68.0,67,30.04,10.0,SSE,8.1,-,N/A,,Mostly Cloudy,150,2014-05-06 02:54:00
5:54 PM,79.0,66.9,66,30.05,10.0,Calm,Calm,-,N/A,,Mostly Cloudy,0,2014-05-06 03:54:00
6:54 PM,75.0,71.1,87,30.08,10.0,North,5.8,-,N/A,,Clear,10,2014-05-06 04:54:00
7:54 PM,73.0,71.1,93,30.09,10.0,North,5.8,-,N/A,,Clear,10,2014-05-06 05:54:00
8:54 PM,73.0,69.1,87,30.11,10.0,NE,6.9,-,N/A,,Clear,50,2014-05-06 06:54:00
9:54 PM,73.0,69.1,87,30.13,10.0,Calm,Calm,-,N/A,,Clear,0,2014-05-06 07:54:00